Regional Weather Roundup
Issued by NWS

Home | Current Version | Previous Version | Graphics & Text | Print | Product List | Glossary On
Versions: 1 2 3 4 5 6 7 8 9 10 11 12 13 14 15 16 17 18 19 20 21 22 23 24 25 26 27 28 29 30 31 32 33 34 35 36 37 38 39 40 41 42 43 44 45 46 47 48 49 50
000
ASUS45 KABQ 220301
RWRNM
NEW MEXICO REGIONAL WEATHER ROUNDUP
NATIONAL WEATHER SERVICE ALBUQUERQUE NM
900 PM MDT SAT OCT 21 2017

NOTE: "FAIR" MEANS FEW OR NO CLOUDS BELOW 12,000 FEET AGL WITH NO
       SIGNIFICANT WEATHER OR OBSTRUCTIONS TO VISION.

      THIS PRODUCT IS RELEASED AS TWO VERSIONS.  ONE VERSION NEAR
      THE TOP OF THE HOUR CONTAINING PRELIMINARY DATA FROM ALBUQUERQUE
      AND OTHER STATIONS.  A FINAL VERSION WITH ADDITIONAL DATA IS
      ISSUED ABOUT 10 MINUTES AFTER THE HOUR.

NMZ501-503-504-510>518-220400-
NORTHWEST PLATEAU/NORTHCENTRAL MOUNTAINS

CITY           SKY/WX    TMP DP  RH WIND       PRES   REMARKS
FARMINGTON     FAIR      46   5  18 NW13      30.26R
LOS ALAMOS     FAIR      45   2  16 CALM      30.26R
SANTA FE       FAIR      39  10  30 NW7       30.23R WCI  34
TAOS           FAIR      36   8  31 NW12      30.27R WCI  28
ANGEL FIRE     FAIR      32   8  36 NW6       30.27R WCI  27

$$
NMZ402-403-502-505>509-220400-
WESTCENTRAL MOUNTAINS/SOUTHWEST MOUNTAINS

CITY           SKY/WX    TMP DP  RH WIND       PRES   REMARKS
GALLUP         FAIR      37   5  26 CALM      30.31R
GRANTS         FAIR      40  11  30 NW9       30.30R WCI  35
SILVER CITY    FAIR      56  30  37 N12       30.19R

$$
NMZ407-409-411-412-220400-
SOUTHERN DESERTS

CITY           SKY/WX    TMP DP  RH WIND       PRES   REMARKS
DEMING         FAIR      61  28  28 S3        30.14R
LAS CRUCES     FAIR      65  30  27 W9        30.13R
HOLLOMAN AFB   FAIR      58  38  47 N12       30.12R HAZE
ALAMOGORDO     FAIR      64  32  29 NE9       30.12R
T OR C         FAIR      65  19  17 NW13G18   30.15R

$$
NMZ519>523-220400-
CENTRAL VALLEYS/CENTRAL HIGHLANDS

CITY           SKY/WX    TMP DP  RH WIND       PRES   REMARKS
ALBUQUERQUE    FAIR      55   2  11 N17G24    30.23R
DOUBLE EAGLE   CLEAR     48   9  20 N12       30.26R
MORIARTY ARPT  FAIR      46   6  19 NW8       30.23S
CLINES CORNERS FAIR      40   4  22 NW14      30.24R WCI  32
BELEN          FAIR      48  10  21 NW8       30.22R
SOCORRO        FAIR      57  11  16 N3        30.18R

$$
NMZ524>526-539-540-220400-
SOUTHCENTRAL MOUNTAINS

CITY           SKY/WX    TMP DP  RH WIND       PRES   REMARKS
RUIDOSO        FAIR      52  19  28 W10       30.25R

$$
NMZ527>531-220400-
NORTHEAST HIGHLANDS/NORTHEAST PLAINS

CITY           SKY/WX    TMP DP  RH WIND       PRES   REMARKS
LAS VEGAS      FAIR      40  27  59 SE5       30.21R
RATON          FAIR      40  30  67 N6        30.17R
CLAYTON        FAIR      40  24  53 NW7       30.12R

$$
NMZ532>537-220400-
EASTCENTRAL PLAINS

CITY           SKY/WX    TMP DP  RH WIND       PRES   REMARKS
SANTA ROSA     FAIR      47  35  63 N6        30.14R
TUCUMCARI      FAIR      46  35  65 W5        30.09R
CANNON AFB     CLEAR     49  40  71 NE10      30.10R
CLOVIS AIRPORT FAIR      45  37  73 N9        30.10R

$$
NMZ028-029-538-220400-
SOUTHEAST PLAINS

CITY           SKY/WX    TMP DP  RH WIND       PRES   REMARKS
ROSWELL        FAIR      61  30  31 NW10      30.07R
ARTESIA        FAIR      59  41  51 NW9       30.06R
CARLSBAD       FAIR      60  45  57 W12       30.02R
HOBBS          FAIR      61  36  39 N15       30.03R


$$




USA.gov is the U.S. government's official web portal to all federal, state and local government web resources and services.